Wind_Speed
19 16 18 19 18 17 15 13 11 12 10 8 7 7 5 3 3 4 5 7 7 6 6 6 6 6 5 6 7 7 7 7 7 8 9 9 10 11 12 13 14 15
21 18 18 18 16 15 14 12 12 13 10 8 7 6 4 2 3 6 7 7 7 6 6 6 7 6 5 7 7 6 7 7 8 9 10 10 10 12 13 14 15 16
22 19 19 17 16 17 16 14 14 13 10 8 7 5 3 3 6 8 8 8 7 6 7 7 7 6 6 7 6 7 7 8 9 10 10 10 11 12 13 14 15 16
24 21 19 18 18 19 18 17 16 14 10 8 7 4 3 5 8 9 8 8 7 7 8 8 8 7 6 6 6 7 8 9 10 11 10 10 11 13 14 13 15 17
23 22 21 20 20 21 20 19 16 14 11 8 7 5 4 6 10 10 8 8 8 8 9 9 8 7 6 7 7 8 9 10 11 11 11 11 12 13 14 14 15 16
23 21 22 22 21 21 22 20 16 14 11 8 7 5 5 9 10 10 8 8 9 10 10 9 8 7 6 7 8 9 10 10 11 11 11 11 12 13 13 14 15 15
23 22 23 22 22 23 22 20 17 14 11 9 8 6 7 11 11 10 9 9 10 11 10 9 8 7 7 8 9 10 10 11 11 11 11 12 13 13 13 14 14 14
23 24 24 23 23 24 22 20 18 14 12 10 8 7 9 12 11 10 10 10 11 11 10 9 8 7 8 9 10 10 10 11 12 11 11 12 13 12 12 13 14 14
24 26 24 23 23 24 23 20 18 15 13 11 8 8 11 12 12 11 10 11 12 11 11 9 8 8 8 9 10 10 10 11 11 11 11 12 13 12 12 12 13 14
26 26 24 23 25 25 23 21 19 16 14 11 7 8 12 13 12 12 11 12 13 12 11 9 8 8 8 9 10 11 11 11 11 11 12 12 13 12 12 12 13 13
26 25 24 25 26 26 24 21 19 17 15 12 9 9 12 13 13 13 12 13 13 12 10 9 8 8 8 9 10 11 11 11 11 11 12 12 12 12 12 12 13 13
26 25 25 27 27 26 23 21 20 18 15 12 10 10 12 13 14 14 13 14 13 12 11 9 8 7 8 9 9 10 11 11 11 12 12 13 13 12 12 12 12 13
23 24 26 27 27 25 23 21 21 18 15 13 10 10 12 14 14 14 14 14 14 13 11 9 8 7 8 9 9 10 11 11 11 12 12 13 13 13 13 12 12 13
20 23 27 27 25 24 22 21 21 19 16 13 11 11 13 14 14 15 14 13 14 13 11 10 8 7 7 8 9 10 11 11 11 12 12 13 14 13 13 13 12 12
23 26 28 27 25 24 22 21 21 19 16 14 11 11 13 14 14 14 13 13 14 13 11 10 9 7 7 8 9 10 11 12 12 12 12 13 13 14 13 13 12 11
26 29 29 27 27 26 23 22 22 19 16 14 13 12 14 15 14 14 13 13 13 13 12 10 9 8 7 8 9 10 11 12 12 13 13 12 13 13 13 12 11 11
27 29 30 28 26 24 22 23 22 19 16 15 15 15 15 16 15 15 14 13 13 13 12 11 10 8 8 8 9 10 11 12 12 13 13 12 12 12 13 12 11 10
28 29 29 27 25 24 23 23 22 19 17 16 17 17 17 18 18 17 15 14 14 13 12 11 11 9 8 8 9 11 12 13 13 13 13 12 11 11 11 12 11 10
28 27 26 25 24 24 24 24 22 19 17 17 18 18 18 19 20 19 17 16 15 14 13 13 12 10 9 9 10 11 13 14 13 13 13 12 11 11 11 12 11 10
26 25 24 24 24 24 25 25 22 18 16 16 17 18 19 21 22 21 20 17 16 14 14 14 13 11 10 9 10 12 13 14 14 13 14 13 13 12 12 12 12 11
24 25 25 24 25 25 26 25 21 17 15 16 17 19 21 22 22 23 21 19 17 15 14 15 13 12 11 10 11 12 13 15 15 14 14 14 14 13 12 12 13 12
25 26 26 25 27 28 28 25 21 16 13 14 18 21 22 23 24 24 22 20 18 17 15 15 14 13 12 11 12 13 14 15 16 15 15 14 14 14 12 12 13 12
26 28 28 27 28 30 29 25 20 16 13 15 20 24 25 25 26 25 23 21 20 18 17 16 15 15 14 12 13 14 15 16 16 16 15 15 14 13 12 12 13 13
26 28 30 28 26 28 29 24 19 17 14 16 21 24 25 26 26 25 23 21 20 18 18 17 16 15 14 13 14 15 16 17 17 16 16 15 14 14 12 12 12 12
27 27 28 27 26 29 29 24 19 17 14 16 21 24 25 27 27 26 24 22 21 20 19 17 16 16 15 14 15 15 17 18 16 15 16 16 14 14 13 12 11 11
30 28 26 28 29 31 29 23 19 16 14 18 23 25 27 28 26 25 24 22 22 21 19 18 18 16 15 15 15 16 18 19 17 15 16 16 15 14 13 12 12 11
Wind_Direction
193 198 211 210 203 201 187 180 182 172 172 174 162 157 156 149 132 142 158 149 134 129 129 132 135 135 121 98 87 83 77 71 71 75 77 77 79 83 83 84 86 86
189 196 210 207 202 200 188 182 177 172 177 170 158 162 157 145 144 149 155 149 137 134 137 140 137 132 114 99 91 89 86 79 82 83 81 82 86 88 86 86 88 88
184 193 206 206 203 199 191 185 177 174 177 170 170 174 160 156 150 150 155 149 140 141 143 141 134 125 112 106 99 94 92 88 88 88 87 90 92 91 89 89 89 88
182 191 203 206 204 200 193 187 180 177 175 174 181 178 167 163 149 150 157 149 145 148 144 138 129 123 117 109 102 100 98 96 95 94 93 97 98 95 92 91 90 88
182 193 202 204 203 198 191 187 183 179 175 175 181 183 174 157 149 154 157 151 152 149 142 135 127 125 121 109 106 107 104 102 100 98 99 102 101 97 94 93 91 88
183 196 204 204 200 194 187 184 184 183 178 178 187 194 174 154 151 155 157 156 156 148 141 135 129 128 121 112 113 114 110 107 105 102 104 107 102 98 96 94 92 90
185 196 204 204 197 190 185 182 183 185 181 186 197 194 169 156 154 158 163 164 155 148 143 135 132 131 121 118 119 118 115 112 108 106 108 109 104 100 99 98 96 94
191 196 201 202 193 186 184 182 185 186 183 192 203 189 166 157 157 163 169 165 154 148 144 136 135 133 123 124 124 119 117 115 111 111 112 111 107 103 102 102 100 98
195 197 198 197 190 185 183 183 187 186 184 195 204 182 166 158 161 170 170 163 155 149 144 139 138 134 126 129 127 120 119 118 116 116 116 114 110 107 106 106 104 101
196 197 194 194 191 185 183 184 188 185 185 200 207 178 165 162 165 171 170 164 156 150 148 144 139 133 129 131 129 124 123 122 121 121 120 118 115 112 112 110 108 104
196 195 192 191 190 186 183 184 188 186 188 203 205 178 166 164 168 171 169 165 158 154 152 146 139 135 132 134 133 130 129 129 128 126 124 123 119 118 119 115 112 108
194 192 190 189 189 187 183 184 189 189 193 202 200 183 174 171 173 172 168 166 162 157 155 148 141 138 136 137 138 137 136 136 133 130 129 127 123 122 124 121 116 114
190 188 188 190 190 186 182 186 190 190 197 205 197 184 180 177 178 175 168 168 166 160 157 152 144 141 141 141 143 144 143 141 138 135 133 130 129 128 128 125 120 115
191 189 190 191 190 186 184 188 190 190 198 205 194 182 181 180 180 177 171 167 167 164 162 157 151 148 147 147 151 153 150 147 143 139 137 135 133 133 131 126 122 116
195 193 193 192 189 187 188 191 191 192 199 202 191 181 181 181 179 180 177 170 169 169 167 164 161 160 157 155 158 161 157 152 147 142 141 139 136 136 133 128 127 125
196 193 192 192 189 187 189 191 191 194 201 202 193 183 182 181 177 178 182 179 174 174 172 172 174 172 167 162 163 167 165 158 152 147 144 144 141 139 137 135 136 135
197 195 192 191 190 186 187 190 192 196 202 201 195 190 186 185 182 180 182 180 179 180 178 180 183 180 174 169 167 169 169 163 158 153 150 148 147 144 141 142 142 138
200 198 191 188 188 187 188 191 193 198 204 202 199 194 189 189 190 188 185 181 182 184 185 189 190 186 182 176 171 173 171 166 163 160 157 155 154 152 148 147 148 143
201 198 190 187 188 189 190 192 194 198 203 204 201 197 193 193 195 194 190 187 187 187 190 196 195 190 189 181 175 178 172 166 167 166 163 163 165 165 160 156 157 152
199 195 192 191 191 192 194 193 193 199 206 207 204 198 195 196 197 198 195 191 193 193 197 203 200 193 193 186 180 183 175 169 173 173 168 169 174 175 171 165 162 159
199 194 194 196 196 197 196 192 194 205 213 210 206 201 198 197 198 200 197 195 197 198 202 207 204 197 197 192 186 186 180 175 177 177 174 175 180 181 175 171 167 164
200 195 195 201 201 197 192 191 198 214 221 212 202 200 200 198 199 200 199 198 200 202 207 210 205 201 201 197 193 189 183 181 181 180 178 179 185 185 179 178 172 165
203 202 199 200 201 197 191 192 202 214 220 210 198 196 197 197 199 200 200 203 205 207 213 213 206 205 204 200 197 192 186 185 184 183 182 184 190 188 184 188 180 168
205 207 201 198 201 201 196 196 204 212 219 212 199 194 196 196 197 199 201 207 209 211 217 216 209 207 207 204 201 195 189 187 186 187 187 188 192 190 189 198 193 178
207 207 203 202 205 204 199 200 206 212 219 211 198 194 196 196 196 198 203 208 210 214 218 217 211 208 208 208 204 197 192 186 184 190 193 190 193 194 193 202 204 193
208 206 205 209 208 204 201 203 206 213 218 207 197 196 196 195 195 199 204 209 213 216 216 213 210 208 209 210 205 200 193 184 182 194 196 191 194 196 195 203 206 201
Height
1537 1539 1541 1542 1542 1543 1544 1546 1546 1547 1547 1548 1548 1548 1548 1548 1548 1549 1550 1550 1551 1551 1552 1553 1553 1553 1553 1553 1553 1553 1553 1554 1554 1554 1554 1554 1554 1553 1553 1552 1552 1552
1534 1536 1539 1540 1541 1542 1543 1545 1545 1546 1547 1547 1547 1547 1547 1547 1547 1548 1549 1549 1550 1551 1552 1552 1552 1552 1553 1553 1553 1553 1553 1553 1553 1553 1554 1554 1554 1553 1553 1553 1553 1552
1532 1534 1536 1538 1539 1541 1542 1543 1544 1545 1546 1546 1546 1546 1546 1546 1547 1547 1548 1549 1550 1550 1551 1551 1551 1552 1552 1552 1553 1553 1553 1553 1553 1553 1554 1554 1554 1554 1553 1553 1553 1553
1530 1532 1534 1536 1538 1540 1541 1542 1543 1545 1545 1545 1545 1545 1545 1545 1546 1546 1547 1548 1549 1550 1550 1550 1551 1551 1551 1552 1552 1552 1552 1553 1553 1554 1554 1555 1555 1554 1554 1554 1554 1553
1528 1531 1533 1535 1536 1538 1540 1541 1542 1543 1544 1544 1544 1544 1544 1544 1545 1546 1547 1548 1548 1549 1549 1549 1550 1550 1551 1551 1551 1552 1552 1553 1553 1554 1555 1555 1555 1555 1554 1554 1554 1554
1527 1529 1531 1533 1535 1536 1538 1539 1541 1542 1543 1543 1543 1543 1543 1544 1544 1545 1546 1547 1547 1548 1548 1549 1549 1550 1550 1551 1551 1552 1552 1553 1553 1554 1555 1555 1555 1555 1555 1555 1554 1554
1525 1527 1529 1531 1533 1534 1536 1538 1540 1540 1541 1541 1542 1542 1543 1543 1544 1545 1546 1546 1547 1547 1548 1548 1549 1549 1550 1550 1551 1551 1552 1553 1553 1554 1555 1555 1555 1555 1555 1555 1555 1555
1523 1525 1526 1528 1530 1532 1534 1536 1538 1539 1540 1540 1541 1542 1542 1543 1544 1544 1545 1546 1546 1547 1547 1548 1548 1549 1549 1550 1550 1551 1552 1553 1553 1554 1555 1555 1555 1555 1555 1555 1555 1555
1521 1522 1524 1526 1528 1530 1532 1535 1536 1537 1539 1540 1540 1541 1541 1543 1543 1544 1545 1545 1545 1546 1546 1547 1548 1548 1549 1549 1550 1551 1552 1553 1553 1554 1555 1555 1555 1556 1556 1556 1556 1555
1519 1520 1522 1524 1526 1528 1531 1533 1535 1536 1538 1539 1539 1540 1541 1542 1543 1543 1544 1544 1545 1545 1546 1547 1548 1548 1548 1549 1550 1551 1551 1552 1553 1554 1555 1555 1555 1556 1556 1556 1556 1556
1516 1518 1520 1522 1524 1527 1529 1532 1534 1535 1537 1538 1539 1540 1540 1541 1542 1543 1543 1543 1544 1545 1546 1547 1547 1547 1548 1549 1549 1550 1551 1552 1553 1554 1554 1555 1555 1556 1556 1556 1556 1556
1514 1516 1519 1521 1523 1525 1528 1531 1533 1534 1536 1537 1538 1539 1539 1540 1541 1542 1542 1543 1543 1544 1545 1546 1546 1547 1547 1548 1549 1550 1551 1552 1552 1553 1554 1554 1555 1555 1556 1556 1556 1556
1514 1516 1518 1520 1523 1525 1527 1529 1531 1533 1535 1536 1537 1538 1539 1540 1540 1541 1542 1542 1543 1544 1545 1545 1546 1546 1547 1548 1549 1550 1551 1552 1552 1553 1553 1554 1555 1555 1556 1556 1556 1556
1514 1516 1517 1519 1522 1524 1526 1528 1530 1532 1534 1535 1536 1537 1538 1539 1540 1541 1541 1542 1543 1543 1544 1545 1545 1546 1547 1548 1549 1550 1550 1551 1552 1552 1553 1554 1555 1555 1556 1556 1556 1557
1511 1513 1515 1517 1520 1522 1525 1527 1529 1531 1532 1534 1535 1536 1537 1539 1540 1540 1541 1542 1542 1543 1543 1544 1545 1546 1547 1547 1548 1549 1550 1551 1551 1552 1553 1554 1554 1555 1556 1556 1556 1557
1509 1511 1513 1515 1518 1520 1523 1525 1527 1529 1530 1532 1533 1534 1536 1537 1539 1540 1540 1541 1542 1542 1543 1543 1544 1545 1546 1547 1548 1549 1550 1550 1551 1552 1553 1554 1554 1555 1555 1556 1556 1556
1506 1508 1511 1513 1516 1518 1520 1523 1525 1527 1528 1529 1531 1532 1534 1535 1537 1538 1539 1540 1541 1541 1542 1543 1544 1545 1545 1546 1547 1548 1549 1550 1551 1552 1553 1553 1554 1555 1555 1556 1556 1556
1505 1506 1508 1511 1514 1516 1518 1521 1523 1524 1526 1527 1528 1530 1532 1533 1535 1536 1538 1539 1539 1540 1541 1542 1543 1544 1545 1546 1546 1547 1549 1550 1551 1552 1552 1553 1554 1555 1555 1555 1556 1556
1503 1505 1507 1509 1512 1514 1517 1518 1520 1522 1523 1525 1526 1528 1530 1532 1533 1534 1536 1537 1538 1539 1540 1541 1542 1543 1543 1544 1545 1547 1548 1549 1550 1551 1552 1554 1554 1555 1555 1555 1555 1556
1501 1503 1505 1508 1510 1513 1515 1516 1518 1520 1521 1523 1524 1526 1528 1530 1532 1533 1534 1535 1537 1538 1539 1539 1540 1542 1542 1543 1544 1545 1546 1548 1550 1551 1552 1553 1554 1554 1555 1555 1555 1556
1499 1501 1504 1506 1509 1511 1513 1515 1517 1518 1520 1521 1523 1525 1527 1529 1530 1532 1533 1534 1536 1537 1537 1538 1539 1541 1542 1542 1543 1544 1545 1547 1548 1550 1551 1552 1553 1554 1554 1554 1555 1555
1498 1499 1501 1504 1506 1508 1511 1513 1515 1516 1518 1519 1521 1523 1525 1527 1529 1530 1532 1533 1534 1535 1536 1537 1538 1540 1541 1542 1542 1543 1544 1546 1547 1548 1550 1551 1552 1553 1553 1554 1554 1554
1495 1497 1498 1501 1503 1506 1508 1510 1512 1514 1516 1517 1519 1521 1522 1525 1527 1528 1530 1532 1533 1534 1535 1535 1537 1538 1539 1541 1542 1542 1543 1545 1546 1547 1549 1550 1551 1551 1552 1553 1553 1553
1493 1495 1497 1499 1502 1504 1506 1508 1510 1512 1514 1515 1517 1518 1520 1522 1525 1527 1529 1530 1531 1533 1533 1534 1536 1537 1538 1540 1540 1541 1542 1544 1545 1547 1547 1549 1550 1550 1551 1552 1552 1552
1491 1493 1495 1498 1501 1503 1505 1506 1508 1510 1512 1513 1515 1516 1518 1520 1523 1525 1527 1528 1530 1531 1531 1533 1534 1535 1537 1538 1539 1540 1541 1543 1545 1546 1547 1548 1549 1549 1550 1551 1551 1551
1488 1491 1493 1495 1497 1500 1502 1505 1507 1508 1510 1511 1513 1514 1516 1518 1521 1523 1525 1526 1528 1529 1530 1531 1532 1533 1535 1537 1538 1539 1540 1542 1544 1546 1546 1547 1548 1548 1549 1550 1550 1550